owner,sensor,date,latitude,longitude,vertical_datum,wind_speed,wind_to_direction,wind_speed_of_gust,qcFlag 
DISL,ioos:station:DISL:KATA:1,2012-09-01T00:00:00Z,30.2583,-88.2131,0.0,6.1,154.6,-9999.0,'1111122,1111122,1111122' 
DISL,ioos:station:DISL:KATA:1,2012-09-01T00:30:00Z,30.2583,-88.2131,0.0,5.88,150.8,-9999.0,'1111122,1111122,1111122' 
DISL,ioos:station:DISL:KATA:1,2012-09-01T01:00:00Z,30.2583,-88.2131,0.0,6.3,150.6,-9999.0,'1111122,1111122,1111122' 
DISL,ioos:station:DISL:KATA:1,2012-09-01T01:30:00Z,30.2583,-88.2131,0.0,6.71,153.3,-9999.0,'1111122,1111122,1111122' 
DISL,ioos:station:DISL:KATA:1,2012-09-01T02:00:00Z,30.2583,-88.2131,0.0,6.42,157.2,-9999.0,'1111122,1111122,1111122' 
DISL,ioos:station:DISL:KATA:1,2012-09-01T02:30:00Z,30.2583,-88.2131,0.0,6.96,157.9,-9999.0,'1111122,1111122,1111122' 
DISL,ioos:station:DISL:KATA:1,2012-09-01T03:00:00Z,30.2583,-88.2131,0.0,6.8,161.3,-9999.0,'1111122,1111122,1111122' 
DISL,ioos:station:DISL:KATA:1,2012-09-01T03:30:00Z,30.2583,-88.2131,0.0,6.37,171.0,-9999.0,'1111122,1111122,1111122' 
DISL,ioos:station:DISL:KATA:1,2012-09-01T04:00:00Z,30.2583,-88.2131,0.0,6.54,166.4,-9999.0,'1111122,1111122,1111122' 
DISL,ioos:station:DISL:KATA:1,2012-09-01T04:30:00Z,30.2583,-88.2131,0.0,6.46,169.4,-9999.0,'1111122,1111122,1111122' 
DISL,ioos:station:DISL:KATA:1,2012-09-01T05:00:00Z,30.2583,-88.2131,0.0,6.31,175.0,-9999.0,'1111122,1111122,1111122' 
DISL,ioos:station:DISL:KATA:1,2012-09-01T05:30:00Z,30.2583,-88.2131,0.0,5.96,175.3,-9999.0,'1111122,1111122,1111122' 
DISL,ioos:station:DISL:KATA:1,2012-09-01T06:00:00Z,30.2583,-88.2131,0.0,6.23,175.9,-9999.0,'1111122,1111122,1111122' 
DISL,ioos:station:DISL:KATA:1,2012-09-01T06:30:00Z,30.2583,-88.2131,0.0,5.37,176.7,-9999.0,'1111122,1111122,1111122' 
DISL,ioos:station:DISL:KATA:1,2012-09-01T07:00:00Z,30.2583,-88.2131,0.0,5.04,182.1,-9999.0,'1111122,1111122,1111122' 
DISL,ioos:station:DISL:KATA:1,2012-09-01T07:30:00Z,30.2583,-88.2131,0.0,4.26,197.9,-9999.0,'1111122,1111122,1111122' 
DISL,ioos:station:DISL:KATA:1,2012-09-01T08:00:00Z,30.2583,-88.2131,0.0,3.14,186.6,-9999.0,'1111122,1111122,1111122' 
DISL,ioos:station:DISL:KATA:1,2012-09-01T08:30:00Z,30.2583,-88.2131,0.0,2.5,186.7,-9999.0,'1111122,1111122,1111122' 
DISL,ioos:station:DISL:KATA:1,2012-09-01T09:00:00Z,30.2583,-88.2131,0.0,2.26,175.6,-9999.0,'1111122,1111122,1111122' 
DISL,ioos:station:DISL:KATA:1,2012-09-01T09:30:00Z,30.2583,-88.2131,0.0,2.36,181.9,-9999.0,'1111122,1111122,1111122' 
DISL,ioos:station:DISL:KATA:1,2012-09-01T10:00:00Z,30.2583,-88.2131,0.0,2.89,176.4,-9999.0,'1111122,1111122,1111122' 
DISL,ioos:station:DISL:KATA:1,2012-09-01T10:30:00Z,30.2583,-88.2131,0.0,3.02,173.8,-9999.0,'1111122,1111122,1111122' 
DISL,ioos:station:DISL:KATA:1,2012-09-01T11:00:00Z,30.2583,-88.2131,0.0,2.98,165.2,-9999.0,'1111122,1111122,1111122' 
DISL,ioos:station:DISL:KATA:1,2012-09-01T11:30:00Z,30.2583,-88.2131,0.0,2.89,176.3,-9999.0,'1111122,1111122,1111122' 
DISL,ioos:station:DISL:KATA:1,2012-09-01T12:00:00Z,30.2583,-88.2131,0.0,2.67,183.9,-9999.0,'1111122,1111122,1111122' 
DISL,ioos:station:DISL:KATA:1,2012-09-01T12:30:00Z,30.2583,-88.2131,0.0,2.35,181.6,-9999.0,'1111122,1111122,1111122' 
DISL,ioos:station:DISL:KATA:1,2012-09-01T13:00:00Z,30.2583,-88.2131,0.0,2.6,175.0,-9999.0,'1111122,1111122,1111122' 
DISL,ioos:station:DISL:KATA:1,2012-09-01T13:30:00Z,30.2583,-88.2131,0.0,2.35,179.7,-9999.0,'1111122,1111122,1111122' 
DISL,ioos:station:DISL:KATA:1,2012-09-01T14:00:00Z,30.2583,-88.2131,0.0,2.64,181.3,-9999.0,'1111122,1111122,1111122' 
DISL,ioos:station:DISL:KATA:1,2012-09-01T14:30:00Z,30.2583,-88.2131,0.0,2.46,193.5,-9999.0,'1111122,1111122,1111122' 
DISL,ioos:station:DISL:KATA:1,2012-09-01T15:00:00Z,30.2583,-88.2131,0.0,2.61,182.6,-9999.0,'1111122,1111122,1111122' 
DISL,ioos:station:DISL:KATA:1,2012-09-01T15:30:00Z,30.2583,-88.2131,0.0,2.28,177.0,-9999.0,'1111122,1111122,1111122' 
DISL,ioos:station:DISL:KATA:1,2012-09-01T16:00:00Z,30.2583,-88.2131,0.0,1.82,174.1,-9999.0,'1111122,1111122,1111122' 
DISL,ioos:station:DISL:KATA:1,2012-09-01T16:30:00Z,30.2583,-88.2131,0.0,1.73,166.6,-9999.0,'1111122,1111122,1111122' 
DISL,ioos:station:DISL:KATA:1,2012-09-01T17:00:00Z,30.2583,-88.2131,0.0,2.0,181.5,-9999.0,'1111122,1111122,1111122' 
DISL,ioos:station:DISL:KATA:1,2012-09-01T17:30:00Z,30.2583,-88.2131,0.0,2.06,182.3,-9999.0,'1111122,1111122,1111122' 
DISL,ioos:station:DISL:KATA:1,2012-09-01T18:00:00Z,30.2583,-88.2131,0.0,2.21,172.8,-9999.0,'1111122,1111122,1111122' 
DISL,ioos:station:DISL:KATA:1,2012-09-01T18:30:00Z,30.2583,-88.2131,0.0,2.61,172.6,-9999.0,'1111122,1111122,1111122' 
DISL,ioos:station:DISL:KATA:1,2012-09-01T19:00:00Z,30.2583,-88.2131,0.0,2.68,171.5,-9999.0,'1111122,1111122,1111122' 
DISL,ioos:station:DISL:KATA:1,2012-09-01T19:30:00Z,30.2583,-88.2131,0.0,2.56,162.2,-9999.0,'1111122,1111122,1111122' 
DISL,ioos:station:DISL:KATA:1,2012-09-01T20:00:00Z,30.2583,-88.2131,0.0,3.21,160.8,-9999.0,'1111122,1111122,1111122' 
DISL,ioos:station:DISL:KATA:1,2012-09-01T20:30:00Z,30.2583,-88.2131,0.0,3.9,169.6,-9999.0,'1111122,1111122,1111122' 
DISL,ioos:station:DISL:KATA:1,2012-09-01T21:00:00Z,30.2583,-88.2131,0.0,4.07,170.0,-9999.0,'1111122,1111122,1111122' 
DISL,ioos:station:DISL:KATA:1,2012-09-01T21:30:00Z,30.2583,-88.2131,0.0,4.29,184.0,-9999.0,'1111122,1111122,1111122' 
DISL,ioos:station:DISL:KATA:1,2012-09-01T22:00:00Z,30.2583,-88.2131,0.0,3.92,188.3,-9999.0,'1111122,1111122,1111122' 
DISL,ioos:station:DISL:KATA:1,2012-09-01T22:30:00Z,30.2583,-88.2131,0.0,3.86,185.8,-9999.0,'1111122,1111122,1111122' 
DISL,ioos:station:DISL:KATA:1,2012-09-01T23:00:00Z,30.2583,-88.2131,0.0,4.02,194.0,-9999.0,'1111122,1111122,1111122' 
DISL,ioos:station:DISL:KATA:1,2012-09-01T23:30:00Z,30.2583,-88.2131,0.0,3.88,200.1,-9999.0,'1111122,1111122,1111122' 
DISL,ioos:station:DISL:KATA:1,2012-09-02T00:00:00Z,30.2583,-88.2131,0.0,3.81,210.4,-9999.0,'1111122,1111122,1111122' 
DISL,ioos:station:DISL:KATA:1,2012-09-02T00:30:00Z,30.2583,-88.2131,0.0,3.78,214.8,-9999.0,'1111122,1111122,1111122' 
DISL,ioos:station:DISL:KATA:1,2012-09-02T01:00:00Z,30.2583,-88.2131,0.0,4.03,203.8,-9999.0,'1111122,1111122,1111122' 
DISL,ioos:station:DISL:KATA:1,2012-09-02T01:30:00Z,30.2583,-88.2131,0.0,4.51,196.7,-9999.0,'1111122,1111122,1111122' 
DISL,ioos:station:DISL:KATA:1,2012-09-02T02:00:00Z,30.2583,-88.2131,0.0,4.99,185.2,-9999.0,'1111122,1111122,1111122' 
DISL,ioos:station:DISL:KATA:1,2012-09-02T02:30:00Z,30.2583,-88.2131,0.0,5.24,178.7,-9999.0,'1111122,1111122,1111122' 
DISL,ioos:station:DISL:KATA:1,2012-09-02T03:00:00Z,30.2583,-88.2131,0.0,5.29,185.6,-9999.0,'1111122,1111122,1111122' 
DISL,ioos:station:DISL:KATA:1,2012-09-02T03:30:00Z,30.2583,-88.2131,0.0,5.22,193.5,-9999.0,'1111122,1111122,1111122' 
DISL,ioos:station:DISL:KATA:1,2012-09-02T04:00:00Z,30.2583,-88.2131,0.0,5.14,186.8,-9999.0,'1111122,1111122,1111122' 
DISL,ioos:station:DISL:KATA:1,2012-09-02T04:30:00Z,30.2583,-88.2131,0.0,5.38,192.4,-9999.0,'1111122,1111122,1111122' 
DISL,ioos:station:DISL:KATA:1,2012-09-02T05:00:00Z,30.2583,-88.2131,0.0,5.29,204.9,-9999.0,'1111122,1111122,1111122' 
DISL,ioos:station:DISL:KATA:1,2012-09-02T05:30:00Z,30.2583,-88.2131,0.0,4.48,212.4,-9999.0,'1111122,1111122,1111122' 
DISL,ioos:station:DISL:KATA:1,2012-09-02T06:00:00Z,30.2583,-88.2131,0.0,4.54,217.4,-9999.0,'1111122,1111122,1111122' 
DISL,ioos:station:DISL:KATA:1,2012-09-02T06:30:00Z,30.2583,-88.2131,0.0,5.25,211.3,-9999.0,'1111122,1111122,1111122' 
DISL,ioos:station:DISL:KATA:1,2012-09-02T07:00:00Z,30.2583,-88.2131,0.0,5.63,209.5,-9999.0,'1111122,1111122,1111122' 
DISL,ioos:station:DISL:KATA:1,2012-09-02T07:30:00Z,30.2583,-88.2131,0.0,5.49,216.8,-9999.0,'1111122,1111122,1111122' 
DISL,ioos:station:DISL:KATA:1,2012-09-02T08:00:00Z,30.2583,-88.2131,0.0,5.75,216.7,-9999.0,'1111122,1111122,1111122' 
DISL,ioos:station:DISL:KATA:1,2012-09-02T08:30:00Z,30.2583,-88.2131,0.0,5.28,223.3,-9999.0,'1111122,1111122,1111122' 
DISL,ioos:station:DISL:KATA:1,2012-09-02T09:00:00Z,30.2583,-88.2131,0.0,5.1,227.0,-9999.0,'1111122,1111122,1111122' 
DISL,ioos:station:DISL:KATA:1,2012-09-02T09:30:00Z,30.2583,-88.2131,0.0,4.66,237.3,-9999.0,'1111122,1111122,1111122' 
DISL,ioos:station:DISL:KATA:1,2012-09-02T10:00:00Z,30.2583,-88.2131,0.0,4.22,237.4,-9999.0,'1111122,1111122,1111122' 
DISL,ioos:station:DISL:KATA:1,2012-09-02T10:30:00Z,30.2583,-88.2131,0.0,4.38,228.3,-9999.0,'1111122,1111122,1111122' 
DISL,ioos:station:DISL:KATA:1,2012-09-02T11:00:00Z,30.2583,-88.2131,0.0,4.75,237.6,-9999.0,'1111122,1111122,1111122' 
DISL,ioos:station:DISL:KATA:1,2012-09-02T11:30:00Z,30.2583,-88.2131,0.0,4.86,237.6,-9999.0,'1111122,1111122,1111122' 
DISL,ioos:station:DISL:KATA:1,2012-09-02T12:00:00Z,30.2583,-88.2131,0.0,4.1,237.9,-9999.0,'1111122,1111122,1111122' 
DISL,ioos:station:DISL:KATA:1,2012-09-02T12:30:00Z,30.2583,-88.2131,0.0,3.69,255.0,-9999.0,'1111122,1111122,1111122' 
DISL,ioos:station:DISL:KATA:1,2012-09-02T13:00:00Z,30.2583,-88.2131,0.0,4.33,266.0,-9999.0,'1111122,1111122,1111122' 
DISL,ioos:station:DISL:KATA:1,2012-09-02T13:30:00Z,30.2583,-88.2131,0.0,3.43,268.4,-9999.0,'1111122,1111122,1111122' 
DISL,ioos:station:DISL:KATA:1,2012-09-02T14:00:00Z,30.2583,-88.2131,0.0,3.59,274.6,-9999.0,'1111122,1111122,1111122' 
DISL,ioos:station:DISL:KATA:1,2012-09-02T14:30:00Z,30.2583,-88.2131,0.0,3.98,285.1,-9999.0,'1111122,1111122,1111122' 
DISL,ioos:station:DISL:KATA:1,2012-09-02T15:00:00Z,30.2583,-88.2131,0.0,3.72,278.9,-9999.0,'1111122,1111122,1111122' 
DISL,ioos:station:DISL:KATA:1,2012-09-02T15:30:00Z,30.2583,-88.2131,0.0,2.94,272.2,-9999.0,'1111122,1111122,1111122' 
DISL,ioos:station:DISL:KATA:1,2012-09-02T16:00:00Z,30.2583,-88.2131,0.0,3.0,273.8,-9999.0,'1111122,1111122,1111122' 
DISL,ioos:station:DISL:KATA:1,2012-09-02T16:30:00Z,30.2583,-88.2131,0.0,3.25,255.3,-9999.0,'1111122,1111122,1111122' 
DISL,ioos:station:DISL:KATA:1,2012-09-02T17:00:00Z,30.2583,-88.2131,0.0,4.34,258.0,-9999.0,'1111122,1111122,1111122' 
DISL,ioos:station:DISL:KATA:1,2012-09-02T17:30:00Z,30.2583,-88.2131,0.0,4.33,250.5,-9999.0,'1111122,1111122,1111122' 
DISL,ioos:station:DISL:KATA:1,2012-09-02T18:00:00Z,30.2583,-88.2131,0.0,4.72,256.7,-9999.0,'1111122,1111122,1111122' 
DISL,ioos:station:DISL:KATA:1,2012-09-02T18:30:00Z,30.2583,-88.2131,0.0,4.21,231.6,-9999.0,'1111122,1111122,1111122' 
DISL,ioos:station:DISL:KATA:1,2012-09-02T19:00:00Z,30.2583,-88.2131,0.0,4.17,233.7,-9999.0,'1111122,1111122,1111122' 
DISL,ioos:station:DISL:KATA:1,2012-09-02T19:30:00Z,30.2583,-88.2131,0.0,5.3,219.2,-9999.0,'1111122,1111122,1111122' 
DISL,ioos:station:DISL:KATA:1,2012-09-02T20:00:00Z,30.2583,-88.2131,0.0,5.4,206.4,-9999.0,'1111122,1111122,1111122' 
DISL,ioos:station:DISL:KATA:1,2012-09-02T20:30:00Z,30.2583,-88.2131,0.0,5.6,205.0,-9999.0,'1111122,1111122,1111122' 
DISL,ioos:station:DISL:KATA:1,2012-09-02T21:00:00Z,30.2583,-88.2131,0.0,6.09,206.9,-9999.0,'1111122,1111122,1111122' 
DISL,ioos:station:DISL:KATA:1,2012-09-02T21:30:00Z,30.2583,-88.2131,0.0,6.14,214.5,-9999.0,'1111122,1111122,1111122' 
DISL,ioos:station:DISL:KATA:1,2012-09-02T22:00:00Z,30.2583,-88.2131,0.0,5.85,209.5,-9999.0,'1111122,1111122,1111122' 
DISL,ioos:station:DISL:KATA:1,2012-09-02T22:30:00Z,30.2583,-88.2131,0.0,6.02,208.4,-9999.0,'1111122,1111122,1111122' 
DISL,ioos:station:DISL:KATA:1,2012-09-02T23:00:00Z,30.2583,-88.2131,0.0,6.58,212.1,-9999.0,'1111122,1111122,1111122' 
DISL,ioos:station:DISL:KATA:1,2012-09-02T23:30:00Z,30.2583,-88.2131,0.0,6.3,207.9,-9999.0,'1111122,1111122,1111122' 
DISL,ioos:station:DISL:KATA:1,2012-09-03T00:00:00Z,30.2583,-88.2131,0.0,6.48,209.1,-9999.0,'1111122,1111122,1111122' 
DISL,ioos:station:DISL:KATA:1,2012-09-03T00:30:00Z,30.2583,-88.2131,0.0,6.82,204.1,-9999.0,'1111122,1111122,1111122' 
DISL,ioos:station:DISL:KATA:1,2012-09-03T01:00:00Z,30.2583,-88.2131,0.0,7.24,202.6,-9999.0,'1111122,1111122,1111122' 
DISL,ioos:station:DISL:KATA:1,2012-09-03T01:30:00Z,30.2583,-88.2131,0.0,7.49,206.9,-9999.0,'1111122,1111122,1111122' 
DISL,ioos:station:DISL:KATA:1,2012-09-03T02:00:00Z,30.2583,-88.2131,0.0,7.16,204.9,-9999.0,'1111122,1111122,1111122' 
DISL,ioos:station:DISL:KATA:1,2012-09-03T02:30:00Z,30.2583,-88.2131,0.0,7.36,206.1,-9999.0,'1111122,1111122,1111122' 
DISL,ioos:station:DISL:KATA:1,2012-09-03T03:00:00Z,30.2583,-88.2131,0.0,7.18,209.1,-9999.0,'1111122,1111122,1111122' 
DISL,ioos:station:DISL:KATA:1,2012-09-03T03:30:00Z,30.2583,-88.2131,0.0,7.68,214.4,-9999.0,'1111122,1111122,1111122' 
DISL,ioos:station:DISL:KATA:1,2012-09-03T04:00:00Z,30.2583,-88.2131,0.0,7.36,219.1,-9999.0,'1111122,1111122,1111122' 
DISL,ioos:station:DISL:KATA:1,2012-09-03T04:30:00Z,30.2583,-88.2131,0.0,7.53,223.4,-9999.0,'1111122,1111122,1111122' 
DISL,ioos:station:DISL:KATA:1,2012-09-03T05:00:00Z,30.2583,-88.2131,0.0,8.09,226.3,-9999.0,'1111122,1111122,1111122' 
DISL,ioos:station:DISL:KATA:1,2012-09-03T05:30:00Z,30.2583,-88.2131,0.0,7.77,231.3,-9999.0,'1111122,1111122,1111122' 
DISL,ioos:station:DISL:KATA:1,2012-09-03T06:00:00Z,30.2583,-88.2131,0.0,7.49,241.6,-9999.0,'1111122,1111122,1111122' 
DISL,ioos:station:DISL:KATA:1,2012-09-03T06:30:00Z,30.2583,-88.2131,0.0,6.55,242.5,-9999.0,'1111122,1111122,1111122' 
DISL,ioos:station:DISL:KATA:1,2012-09-03T07:00:00Z,30.2583,-88.2131,0.0,6.35,240.0,-9999.0,'1111122,1111122,1111122' 
DISL,ioos:station:DISL:KATA:1,2012-09-03T07:30:00Z,30.2583,-88.2131,0.0,6.69,239.8,-9999.0,'1111122,1111122,1111122' 
DISL,ioos:station:DISL:KATA:1,2012-09-03T08:00:00Z,30.2583,-88.2131,0.0,6.68,237.2,-9999.0,'1111122,1111122,1111122' 
DISL,ioos:station:DISL:KATA:1,2012-09-03T08:30:00Z,30.2583,-88.2131,0.0,6.59,236.5,-9999.0,'1111122,1111122,1111122' 
DISL,ioos:station:DISL:KATA:1,2012-09-03T09:00:00Z,30.2583,-88.2131,0.0,6.39,237.2,-9999.0,'1111122,1111122,1111122' 
DISL,ioos:station:DISL:KATA:1,2012-09-03T09:30:00Z,30.2583,-88.2131,0.0,6.14,252.3,-9999.0,'1111122,1111122,1111122' 
DISL,ioos:station:DISL:KATA:1,2012-09-03T10:00:00Z,30.2583,-88.2131,0.0,6.56,242.7,-9999.0,'1111122,1111122,1111122' 
DISL,ioos:station:DISL:KATA:1,2012-09-03T10:30:00Z,30.2583,-88.2131,0.0,6.79,250.0,-9999.0,'1111122,1111122,1111122' 
DISL,ioos:station:DISL:KATA:1,2012-09-03T11:00:00Z,30.2583,-88.2131,0.0,6.23,267.3,-9999.0,'1111122,1111122,1111122' 
DISL,ioos:station:DISL:KATA:1,2012-09-03T11:30:00Z,30.2583,-88.2131,0.0,5.85,262.5,-9999.0,'1111122,1111122,1111122' 
DISL,ioos:station:DISL:KATA:1,2012-09-03T12:00:00Z,30.2583,-88.2131,0.0,6.28,270.4,-9999.0,'1111122,1111122,1111122' 
DISL,ioos:station:DISL:KATA:1,2012-09-03T12:30:00Z,30.2583,-88.2131,0.0,5.8,270.5,-9999.0,'1111122,1111122,1111122' 
DISL,ioos:station:DISL:KATA:1,2012-09-03T13:00:00Z,30.2583,-88.2131,0.0,6.27,272.0,-9999.0,'1111122,1111122,1111122' 
DISL,ioos:station:DISL:KATA:1,2012-09-03T13:30:00Z,30.2583,-88.2131,0.0,5.97,264.7,-9999.0,'1111122,1111122,1111122' 
DISL,ioos:station:DISL:KATA:1,2012-09-03T14:00:00Z,30.2583,-88.2131,0.0,5.92,266.6,-9999.0,'1111122,1111122,1111122' 
DISL,ioos:station:DISL:KATA:1,2012-09-03T14:30:00Z,30.2583,-88.2131,0.0,4.88,266.3,-9999.0,'1111122,1111122,1111122' 
DISL,ioos:station:DISL:KATA:1,2012-09-03T15:00:00Z,30.2583,-88.2131,0.0,5.26,271.6,-9999.0,'1111122,1111122,1111122' 
DISL,ioos:station:DISL:KATA:1,2012-09-03T15:30:00Z,30.2583,-88.2131,0.0,5.02,267.7,-9999.0,'1111122,1111122,1111122' 
DISL,ioos:station:DISL:KATA:1,2012-09-03T16:00:00Z,30.2583,-88.2131,0.0,5.01,257.2,-9999.0,'1111122,1111122,1111122' 
DISL,ioos:station:DISL:KATA:1,2012-09-03T16:30:00Z,30.2583,-88.2131,0.0,5.23,256.9,-9999.0,'1111122,1111122,1111122' 
DISL,ioos:station:DISL:KATA:1,2012-09-03T17:00:00Z,30.2583,-88.2131,0.0,5.44,254.9,-9999.0,'1111122,1111122,1111122' 
DISL,ioos:station:DISL:KATA:1,2012-09-03T17:30:00Z,30.2583,-88.2131,0.0,5.55,247.5,-9999.0,'1111122,1111122,1111122' 
DISL,ioos:station:DISL:KATA:1,2012-09-03T18:00:00Z,30.2583,-88.2131,0.0,5.53,241.4,-9999.0,'1111122,1111122,1111122' 
DISL,ioos:station:DISL:KATA:1,2012-09-03T18:30:00Z,30.2583,-88.2131,0.0,6.2,237.5,-9999.0,'1111122,1111122,1111122' 
DISL,ioos:station:DISL:KATA:1,2012-09-03T19:00:00Z,30.2583,-88.2131,0.0,6.29,240.4,-9999.0,'1111122,1111122,1111122' 
DISL,ioos:station:DISL:KATA:1,2012-09-03T19:30:00Z,30.2583,-88.2131,0.0,6.64,236.3,-9999.0,'1111122,1111122,1111122' 
DISL,ioos:station:DISL:KATA:1,2012-09-03T20:00:00Z,30.2583,-88.2131,0.0,6.11,239.6,-9999.0,'1111122,1111122,1111122' 
DISL,ioos:station:DISL:KATA:1,2012-09-03T20:30:00Z,30.2583,-88.2131,0.0,6.46,233.1,-9999.0,'1111122,1111122,1111122' 
DISL,ioos:station:DISL:KATA:1,2012-09-03T21:00:00Z,30.2583,-88.2131,0.0,6.39,225.5,-9999.0,'1111122,1111122,1111122' 
DISL,ioos:station:DISL:KATA:1,2012-09-03T21:30:00Z,30.2583,-88.2131,0.0,6.07,225.8,-9999.0,'1111122,1111122,1111122' 
DISL,ioos:station:DISL:KATA:1,2012-09-03T22:00:00Z,30.2583,-88.2131,0.0,6.4,219.1,-9999.0,'1111122,1111122,1111122' 
DISL,ioos:station:DISL:KATA:1,2012-09-03T22:30:00Z,30.2583,-88.2131,0.0,6.77,216.7,-9999.0,'1111122,1111122,1111122' 
DISL,ioos:station:DISL:KATA:1,2012-09-03T23:00:00Z,30.2583,-88.2131,0.0,6.66,209.9,-9999.0,'1111122,1111122,1111122' 
DISL,ioos:station:DISL:KATA:1,2012-09-03T23:30:00Z,30.2583,-88.2131,0.0,6.62,213.3,-9999.0,'1111122,1111122,1111122' 
DISL,ioos:station:DISL:KATA:1,2012-09-04T00:00:00Z,30.2583,-88.2131,0.0,7.1,208.2,-9999.0,'1111122,1111122,1111122' 
DISL,ioos:station:DISL:KATA:1,2012-09-04T00:30:00Z,30.2583,-88.2131,0.0,7.08,204.7,-9999.0,'1111122,1111122,1111122' 
DISL,ioos:station:DISL:KATA:1,2012-09-04T01:00:00Z,30.2583,-88.2131,0.0,7.16,208.9,-9999.0,'1111122,1111122,1111122' 
DISL,ioos:station:DISL:KATA:1,2012-09-04T01:30:00Z,30.2583,-88.2131,0.0,7.31,207.1,-9999.0,'1111122,1111122,1111122' 
DISL,ioos:station:DISL:KATA:1,2012-09-04T02:00:00Z,30.2583,-88.2131,0.0,7.25,206.9,-9999.0,'1111122,1111122,1111122' 
DISL,ioos:station:DISL:KATA:1,2012-09-04T02:30:00Z,30.2583,-88.2131,0.0,7.07,214.5,-9999.0,'1111122,1111122,1111122' 
DISL,ioos:station:DISL:KATA:1,2012-09-04T03:00:00Z,30.2583,-88.2131,0.0,6.65,217.4,-9999.0,'1111122,1111122,1111122' 
DISL,ioos:station:DISL:KATA:1,2012-09-04T03:30:00Z,30.2583,-88.2131,0.0,6.84,219.5,-9999.0,'1111122,1111122,1111122' 
DISL,ioos:station:DISL:KATA:1,2012-09-04T04:00:00Z,30.2583,-88.2131,0.0,7.51,221.1,-9999.0,'1111122,1111122,1111122' 
DISL,ioos:station:DISL:KATA:1,2012-09-04T04:30:00Z,30.2583,-88.2131,0.0,8.35,221.6,-9999.0,'1111122,1111122,1111122' 
DISL,ioos:station:DISL:KATA:1,2012-09-04T05:00:00Z,30.2583,-88.2131,0.0,8.88,218.9,-9999.0,'1111122,1111122,1111122' 
DISL,ioos:station:DISL:KATA:1,2012-09-04T05:30:00Z,30.2583,-88.2131,0.0,7.91,224.9,-9999.0,'1111122,1111122,1111122' 
DISL,ioos:station:DISL:KATA:1,2012-09-04T06:00:00Z,30.2583,-88.2131,0.0,8.85,223.0,-9999.0,'1111122,1111122,1111122' 
DISL,ioos:station:DISL:KATA:1,2012-09-04T06:30:00Z,30.2583,-88.2131,0.0,8.38,228.2,-9999.0,'1111122,1111122,1111122' 
DISL,ioos:station:DISL:KATA:1,2012-09-04T07:00:00Z,30.2583,-88.2131,0.0,8.62,229.2,-9999.0,'1111122,1111122,1111122' 
DISL,ioos:station:DISL:KATA:1,2012-09-04T07:30:00Z,30.2583,-88.2131,0.0,7.68,231.1,-9999.0,'1111122,1111122,1111122' 
DISL,ioos:station:DISL:KATA:1,2012-09-04T08:00:00Z,30.2583,-88.2131,0.0,7.36,236.6,-9999.0,'1111122,1111122,1111122' 
DISL,ioos:station:DISL:KATA:1,2012-09-04T08:30:00Z,30.2583,-88.2131,0.0,7.64,241.9,-9999.0,'1111122,1111122,1111122' 
DISL,ioos:station:DISL:KATA:1,2012-09-04T09:00:00Z,30.2583,-88.2131,0.0,7.77,236.2,-9999.0,'1111122,1111122,1111122' 
DISL,ioos:station:DISL:KATA:1,2012-09-04T09:30:00Z,30.2583,-88.2131,0.0,7.65,233.5,-9999.0,'1111122,1111122,1111122' 
DISL,ioos:station:DISL:KATA:1,2012-09-04T10:00:00Z,30.2583,-88.2131,0.0,7.61,253.0,-9999.0,'1111122,1111122,1111122' 
DISL,ioos:station:DISL:KATA:1,2012-09-04T10:30:00Z,30.2583,-88.2131,0.0,7.56,254.2,-9999.0,'1111122,1111122,1111122' 
DISL,ioos:station:DISL:KATA:1,2012-09-04T11:00:00Z,30.2583,-88.2131,0.0,7.9,255.6,-9999.0,'1111122,1111122,1111122' 
DISL,ioos:station:DISL:KATA:1,2012-09-04T11:30:00Z,30.2583,-88.2131,0.0,8.24,262.8,-9999.0,'1111122,1111122,1111122' 
DISL,ioos:station:DISL:KATA:1,2012-09-04T12:00:00Z,30.2583,-88.2131,0.0,8.7,264.1,-9999.0,'1111122,1111122,1111122' 
DISL,ioos:station:DISL:KATA:1,2012-09-04T12:30:00Z,30.2583,-88.2131,0.0,7.95,260.4,-9999.0,'1111122,1111122,1111122' 
DISL,ioos:station:DISL:KATA:1,2012-09-04T13:00:00Z,30.2583,-88.2131,0.0,8.12,265.8,-9999.0,'1111122,1111122,1111122' 
DISL,ioos:station:DISL:KATA:1,2012-09-04T13:30:00Z,30.2583,-88.2131,0.0,8.07,270.8,-9999.0,'1111122,1111122,1111122' 
DISL,ioos:station:DISL:KATA:1,2012-09-04T14:00:00Z,30.2583,-88.2131,0.0,8.63,266.5,-9999.0,'1111122,1111122,1111122' 
DISL,ioos:station:DISL:KATA:1,2012-09-04T14:30:00Z,30.2583,-88.2131,0.0,8.32,271.5,-9999.0,'1111122,1111122,1111122' 
DISL,ioos:station:DISL:KATA:1,2012-09-04T15:00:00Z,30.2583,-88.2131,0.0,7.27,269.4,-9999.0,'1111122,1111122,1111122' 
DISL,ioos:station:DISL:KATA:1,2012-09-04T15:30:00Z,30.2583,-88.2131,0.0,7.27,271.0,-9999.0,'1111122,1111122,1111122' 
DISL,ioos:station:DISL:KATA:1,2012-09-04T16:00:00Z,30.2583,-88.2131,0.0,7.75,273.8,-9999.0,'1111122,1111122,1111122' 
DISL,ioos:station:DISL:KATA:1,2012-09-04T16:30:00Z,30.2583,-88.2131,0.0,7.69,267.4,-9999.0,'1111122,1111122,1111122' 
DISL,ioos:station:DISL:KATA:1,2012-09-04T17:00:00Z,30.2583,-88.2131,0.0,7.44,261.4,-9999.0,'1111122,1111122,1111122' 
DISL,ioos:station:DISL:KATA:1,2012-09-04T17:30:00Z,30.2583,-88.2131,0.0,7.53,260.5,-9999.0,'1111122,1111122,1111122' 
DISL,ioos:station:DISL:KATA:1,2012-09-04T18:00:00Z,30.2583,-88.2131,0.0,7.03,257.4,-9999.0,'1111122,1111122,1111122' 
DISL,ioos:station:DISL:KATA:1,2012-09-04T18:30:00Z,30.2583,-88.2131,0.0,7.98,255.0,-9999.0,'1111122,1111122,1111122' 
DISL,ioos:station:DISL:KATA:1,2012-09-04T19:00:00Z,30.2583,-88.2131,0.0,8.09,258.3,-9999.0,'1111122,1111122,1111122' 
DISL,ioos:station:DISL:KATA:1,2012-09-04T19:30:00Z,30.2583,-88.2131,0.0,8.37,255.1,-9999.0,'1111122,1111122,1111122' 
DISL,ioos:station:DISL:KATA:1,2012-09-04T20:00:00Z,30.2583,-88.2131,0.0,8.57,256.1,-9999.0,'1111122,1111122,1111122' 
DISL,ioos:station:DISL:KATA:1,2012-09-04T20:30:00Z,30.2583,-88.2131,0.0,7.94,245.9,-9999.0,'1111122,1111122,1111122' 
DISL,ioos:station:DISL:KATA:1,2012-09-04T21:00:00Z,30.2583,-88.2131,0.0,8.49,239.3,-9999.0,'1111122,1111122,1111122' 
DISL,ioos:station:DISL:KATA:1,2012-09-04T21:30:00Z,30.2583,-88.2131,0.0,7.72,234.9,-9999.0,'1111122,1111122,1111122' 
DISL,ioos:station:DISL:KATA:1,2012-09-04T22:00:00Z,30.2583,-88.2131,0.0,6.82,228.2,-9999.0,'1111122,1111122,1111122' 
DISL,ioos:station:DISL:KATA:1,2012-09-04T22:30:00Z,30.2583,-88.2131,0.0,6.92,213.1,-9999.0,'1111122,1111122,1111122' 
DISL,ioos:station:DISL:KATA:1,2012-09-04T23:00:00Z,30.2583,-88.2131,0.0,6.02,211.7,-9999.0,'1111122,1111122,1111122' 
DISL,ioos:station:DISL:KATA:1,2012-09-04T23:30:00Z,30.2583,-88.2131,0.0,6.01,211.8,-9999.0,'1111122,1111122,1111122' 
DISL,ioos:station:DISL:KATA:1,2012-09-05T00:00:00Z,30.2583,-88.2131,0.0,5.08,216.9,-9999.0,'1111122,1111122,1111122' 
DISL,ioos:station:DISL:KATA:1,2012-09-05T00:30:00Z,30.2583,-88.2131,0.0,5.58,223.5,-9999.0,'1111122,1111122,1111122' 
DISL,ioos:station:DISL:KATA:1,2012-09-05T01:00:00Z,30.2583,-88.2131,0.0,11.03,275.7,-9999.0,'1111122,1111122,1111122' 
DISL,ioos:station:DISL:KATA:1,2012-09-05T01:30:00Z,30.2583,-88.2131,0.0,7.87,281.1,-9999.0,'1111122,1111122,1111122' 
DISL,ioos:station:DISL:KATA:1,2012-09-05T02:00:00Z,30.2583,-88.2131,0.0,6.52,261.9,-9999.0,'1111122,1111122,1111122' 
DISL,ioos:station:DISL:KATA:1,2012-09-05T02:30:00Z,30.2583,-88.2131,0.0,6.98,261.1,-9999.0,'1111122,1111122,1111122' 
DISL,ioos:station:DISL:KATA:1,2012-09-05T03:00:00Z,30.2583,-88.2131,0.0,11.26,266.0,-9999.0,'1111122,1111122,1111122' 
DISL,ioos:station:DISL:KATA:1,2012-09-05T03:30:00Z,30.2583,-88.2131,0.0,7.95,277.6,-9999.0,'1111122,1111122,1111122' 
DISL,ioos:station:DISL:KATA:1,2012-09-05T04:00:00Z,30.2583,-88.2131,0.0,6.88,307.3,-9999.0,'1111122,1111122,1111122' 
DISL,ioos:station:DISL:KATA:1,2012-09-05T04:30:00Z,30.2583,-88.2131,0.0,3.91,311.6,-9999.0,'1111122,1111122,1111122' 